Tel Aviv, Israel

7:20 PM IST on December 13, 2017 (GMT +0200)
Ben Gurion

Weather History for LLBG - November, 2013

Change the Weather History Date:

Sunday, November 3, 2013

  Actual Average Record
Temperature  
Mean Temperature 72 °F -  
Max Temperature 85 °F 73 °F 89 °F (2003)
Min Temperature 59 °F 55 °F 55 °F (2005)
Cooling Degree Days 7    
Growing Degree Days 22 (Base 50)    
Moisture  
Dew Point 52 °F    
Average Humidity 51    
Maximum Humidity 77    
Minimum Humidity 15    
Precipitation  
Precipitation 0.00 in - - ()
Sea Level Pressure  
Sea Level Pressure 30.03 in    
Wind  
Wind Speed 4 mph ()    
Max Wind Speed 13 mph    
Max Gust Speed -    
Visibility 6.1 miles    
Events      
Averages and records for this station are not official NWS values.
T = Trace of Precipitation, MM = Missing Value Source: Averaged Metar Reports

Daily Weather History Graph

Daily Weather History Graph

Search for Another Location

Airport or City:

Trip Planner

Search our weather history database for the weather conditions in past years. The results will help you decide how hot, cold, wet, or windy it might be!

Date:

Astronomy

Nov. 03, 2013 Rise Set
Actual Time 5:58 AM IST 4:48 PM IST
Civil Twilight 5:33 AM IST 5:14 PM IST
Nautical Twilight 5:04 AM IST 5:43 PM IST
Astronomical Twilight 4:35 AM IST 6:11 PM IST
Moon 5:39 AM IST (11/3) 4:49 PM IST (11/3)
Length of Visible Light 11h 40m
Length of Day
10h 50m
Waning Crescent, 0% of the Moon is Illuminated
Nov 3
Waning Crescent
Nov 3
New
Nov 10
First Quarter
Nov 17
Full
Nov 25
Last Quarter

Hourly Weather History & Observations

Time (IST) Temp. Heat Index Dew Point Humidity Pressure Visibility Wind Dir Wind Speed Gust Speed Precip Events Conditions
12:20 AM 64.4 °F - 55.4 °F 73% 30.04 in - Variable 3.5 mph - N/A   Clear
12:50 AM 64.4 °F - 55.4 °F 73% 30.04 in - Variable 3.5 mph - N/A   Clear
1:20 AM 66.2 °F - 55.4 °F 68% 30.04 in - Variable 2.3 mph - N/A   Clear
1:50 AM 64.4 °F - 53.6 °F 68% 30.04 in - Variable 1.2 mph - N/A   Clear
2:00 AM 65 °F - 56 °F 64% 30.04 in 6 mi 1.2 mph - -  
2:20 AM 62.6 °F - 53.6 °F 72% 30.04 in - Variable 1.2 mph - N/A   Clear
2:50 AM 62.6 °F - 53.6 °F 72% 30.04 in - Variable 2.3 mph - N/A   Clear
3:20 AM 60.8 °F - 53.6 °F 77% 30.04 in - Variable 2.3 mph - N/A   Clear
3:50 AM 60.8 °F - 53.6 °F 77% 30.04 in - Variable 2.3 mph - N/A   Clear
4:20 AM 60.8 °F - 53.6 °F 77% 30.01 in - Variable 2.3 mph - N/A   Clear
4:50 AM 60.8 °F - 51.8 °F 72% 30.01 in - Variable 2.3 mph - N/A   Clear
5:20 AM 60.8 °F - 53.6 °F 77% 30.01 in - Variable 2.3 mph - N/A   Clear
5:50 AM 60.8 °F - 53.6 °F 77% 30.04 in - Variable 2.3 mph - N/A   Clear
6:20 AM 60.8 °F - 53.6 °F 77% 30.04 in - Variable 3.5 mph - N/A   Clear
6:50 AM 62.6 °F - 53.6 °F 72% 30.04 in - Variable 3.5 mph - N/A   Clear
7:20 AM 64.4 °F - 53.6 °F 68% 30.06 in - Variable 2.3 mph - N/A   Clear
7:50 AM 68.0 °F - 53.6 °F 60% 30.06 in - Variable 1.2 mph - N/A   Clear
8:00 AM 69 °F - 54 °F 49% 30.06 in 6 mi 1.2 mph - -  
8:20 AM 73.4 °F - 53.6 °F 50% 30.06 in - Calm Calm - N/A   Clear
8:50 AM 75.2 °F - 51.8 °F 44% 30.06 in - Variable 2.3 mph - N/A   Clear
9:20 AM 78.8 °F - 50.0 °F 36% 30.06 in - Variable 1.2 mph - N/A   Clear
9:50 AM 80.6 °F - 48.2 °F 32% 30.06 in - ESE 4.6 mph - N/A   Clear
10:20 AM 80.6 °F - 48.2 °F 32% 30.06 in - ESE 9.2 mph - N/A   Clear
10:50 AM 80.6 °F - 48.2 °F 32% 30.04 in - East 12.7 mph - N/A   Clear
11:20 AM 82.4 °F - 48.2 °F 30% 30.04 in 6.2 mi SE 4.6 mph - N/A   Partly Cloudy
11:50 AM 82.4 °F - 46.4 °F 28% 30.01 in 6.2 mi East 8.1 mph - N/A   Partly Cloudy
12:20 PM 82.4 °F - 46.4 °F 28% 30.01 in 6.2 mi East 9.2 mph - N/A   Partly Cloudy
12:50 PM 84.2 °F - 44.6 °F 25% 30.01 in 6.2 mi ESE 10.4 mph - N/A   Partly Cloudy
1:20 PM 84.2 °F - 44.6 °F 25% 29.98 in 6.2 mi East 10.4 mph - N/A   Partly Cloudy
1:50 PM 84.2 °F - 42.8 °F 23% 29.98 in 6.2 mi ESE 9.2 mph - N/A   Partly Cloudy
2:00 PM 84 °F - 43 °F 15% 29.99 in 6 mi SE 8.1 mph - -   Scattered Clouds
2:20 PM 84.2 °F - 42.8 °F 23% 29.98 in 6.2 mi ESE 8.1 mph - N/A   Partly Cloudy
2:50 PM 84.2 °F - 44.6 °F 25% 29.98 in 6.2 mi ESE 9.2 mph - N/A   Partly Cloudy
3:20 PM 84.2 °F - 44.6 °F 25% 29.98 in 6.2 mi SE 8.1 mph - N/A   Partly Cloudy
3:50 PM 84.2 °F - 44.6 °F 25% 29.98 in 6.2 mi SE 6.9 mph - N/A   Partly Cloudy
4:20 PM 80.6 °F 80.5 °F 55.4 °F 42% 29.98 in - NNW 6.9 mph - N/A   Clear
4:50 PM 78.8 °F - 57.2 °F 47% 30.01 in - NNW 10.4 mph - N/A   Clear
5:20 PM 77.0 °F - 55.4 °F 47% 30.01 in - NNW 8.1 mph - N/A   Clear
5:50 PM 75.2 °F - 55.4 °F 50% 30.01 in - North 10.4 mph - N/A   Clear
6:20 PM 75.2 °F - 53.6 °F 47% 30.01 in - North 9.2 mph - N/A   Clear
6:50 PM 75.2 °F - 53.6 °F 47% 30.01 in - North 9.2 mph - N/A   Clear
7:20 PM 73.4 °F - 53.6 °F 50% 30.04 in - NNE 8.1 mph - N/A   Clear
7:50 PM 73.4 °F - 55.4 °F 53% 30.04 in - NNE 9.2 mph - N/A   Clear
8:00 PM 73 °F - 56 °F 46% 30.04 in 6 mi NNE 9.2 mph - -  
8:20 PM 71.6 °F - 55.4 °F 57% 30.04 in - NNE 6.9 mph - N/A   Clear
8:50 PM 71.6 °F - 55.4 °F 57% 30.06 in - NE 4.6 mph - N/A   Clear
9:20 PM 69.8 °F - 55.4 °F 60% 30.06 in - NE 5.8 mph - N/A   Clear
9:50 PM 69.8 °F - 53.6 °F 56% 30.06 in - NE 4.6 mph - N/A   Clear
10:20 PM 68.0 °F - 51.8 °F 56% 30.06 in - ENE 4.6 mph - N/A   Clear
10:50 PM 68.0 °F - 51.8 °F 56% 30.06 in - East 4.6 mph - N/A   Clear
11:20 PM 66.2 °F - 50.0 °F 56% 30.06 in - ENE 6.9 mph - N/A   Clear
11:50 PM 66.2 °F - 48.2 °F 52% 30.04 in - ENE 5.8 mph - N/A   Clear